Tracking 25723 objects as of 27-Jun-2022
HD Live streaming from Space Station
objects crossing your sky now

COSMOS 1627

Track COSMOS 1627 now!
10-day predictions
COSMOS 1627 is classified as:


NORAD ID: 15505
Int'l Code: 1985-011A
Perigee: 959.0 km
Apogee: 1,023.0 km
Inclination: 82.9 °
Period: 104.8 minutes
Semi major axis: 7361 km
RCS: 3.2863 m2 (large)
Launch date: February 1, 1985
Source: Commonwealth of Independent States (former USSR) (CIS)
Launch site: PLESETSK MISSILE AND SPACE COMPLEX (PKMTR)
aabbcc
Your satellite tracking list
Your tracking list is empty




NASA's NSSDC Master Catalog

Two Line Element Set (TLE):
1 15505U 85011A   22177.57070678  .00000048  00000-0  33873-4 0  9990
2 15505  82.9214  44.8944 0043463  73.2039 350.9507 13.74395614875698
Source of the keplerian elements: AFSPC